| time (UTC) | temp F | wind direction | speed MPH | gust MPH | rain 1hr in | rain 24hr in | rain mn in | humidity % | barometer mb |
| 20260903060027 | 79 | 236 | 0.0 | 0.0 | 0.00 | 0.00 | 0.00 | 90 | 1010.6 |
| 20260903054525 | 80 | 236 | 0.0 | 0.0 | 0.00 | 0.00 | 0.00 | 89 | 1010.5 |
| 20260903053024 | 79 | 203 | 0.0 | 0.0 | 0.00 | 0.00 | 0.00 | 90 | 1010.5 |
| 20260903051523 | 79 | 203 | 0.0 | 0.0 | 0.00 | 0.00 | 0.00 | 90 | 1010.5 |
| 20260903050024 | 79 | 203 | 0.0 | 0.0 | 0.00 | 0.00 | 0.00 | 90 | 1010.3 |
| 20260903044520 | 79 | 203 | 0.0 | 0.0 | 0.00 | 0.00 | 0.00 | 90 | 1010.2 |
| 20260903043020 | 80 | 203 | 0.0 | 0.0 | 0.00 | 0.00 | 0.00 | 90 | 1010.0 |
| 20260903041530 | 80 | 203 | 0.0 | 0.0 | 0.00 | 0.00 | 0.00 | 89 | 1010.2 |
| 20260903040019 | 80 | 203 | 0.0 | 0.0 | 0.00 | 0.00 | 0.00 | 89 | 1010.2 |
| 20260903034518 | 80 | 203 | 0.0 | 0.0 | 0.00 | 0.00 | 0.00 | 88 | 1010.2 |
| 20260903033018 | 80 | 203 | 0.0 | 0.0 | 0.00 | 0.00 | 0.00 | 87 | 1010.1 |
| 20260903031524 | 81 | 203 | 0.0 | 0.0 | 0.00 | 0.00 | 0.00 | 86 | 1010.1 |
| 20260903030018 | 81 | 203 | 0.0 | 0.0 | 0.00 | 0.00 | 0.00 | 86 | 1010.0 |
| 20260903024516 | 82 | 203 | 0.0 | 0.0 | 0.00 | 0.00 | 0.00 | 85 | 1010.1 |
| 20260903023016 | 82 | 203 | 0.0 | 0.0 | 0.00 | 0.00 | 0.00 | 83 | 1010.0 |
| 20260903021517 | 82 | 203 | 0.0 | 0.0 | 0.00 | 0.00 | 0.00 | 83 | 1010.0 |
| 20260903020031 | 83 | 203 | 0.0 | 0.0 | 0.00 | 0.00 | 0.00 | 82 | 1009.9 |
| 20260903014514 | 83 | 203 | 0.0 | 0.0 | 0.00 | 0.00 | 0.00 | 81 | 1010.0 |
| 20260903013014 | 83 | 203 | 0.0 | 0.0 | 0.00 | 0.00 | 0.00 | 80 | 1009.9 |
| 20260903011513 | 84 | 203 | 0.0 | 0.0 | 0.00 | 0.00 | 0.00 | 79 | 1009.6 |
| 20260903010014 | 84 | 203 | 0.0 | 0.0 | 0.00 | 0.00 | 0.00 | 78 | 1009.5 |
| 20260903004512 | 85 | 203 | 0.0 | 0.0 | 0.00 | 0.00 | 0.00 | 77 | 1009.3 |
| 20260903003012 | 86 | 203 | 0.0 | 0.0 | 0.00 | 0.00 | 0.00 | 74 | 1009.4 |
| 20260903001512 | 87 | 203 | 0.0 | 0.0 | 0.00 | 0.00 | 0.00 | 71 | 1009.3 |
| 20260903000011 | 88 | 203 | 0.0 | 0.0 | 0.00 | 0.00 | 0.00 | 69 | 1009.3 |
| 20260902234510 | 89 | 203 | 0.0 | 0.0 | 0.00 | 0.00 | 0.00 | 67 | 1009.2 |
| 20260902233011 | 90 | 203 | 0.0 | 0.0 | 0.00 | 0.00 | 0.00 | 66 | 1009.1 |
| 20260902231515 | 90 | 203 | 0.0 | 3.0 | 0.00 | 0.00 | 0.00 | 66 | 1009.0 |
| 20260902230010 | 90 | 203 | 0.0 | 3.0 | 0.00 | 0.00 | 0.00 | 65 | 1009.0 |
| 20260902224508 | 91 | 152 | 0.0 | 3.0 | 0.00 | 0.00 | 0.00 | 63 | 1009.1 |
| 20260902223007 | 92 | 69 | 1.0 | 4.0 | 0.00 | 0.00 | 0.00 | 60 | 1009.1 |
| 20260902221517 | 93 | 264 | 0.0 | 2.0 | 0.00 | 0.00 | 0.00 | 57 | 1009.2 |
| 20260902220006 | 93 | 234 | 1.0 | 6.0 | 0.00 | 0.00 | 0.00 | 56 | 1009.2 |
| 20260902214513 | 93 | 182 | 1.0 | 5.0 | 0.00 | 0.00 | 0.00 | 57 | 1009.3 |
| 20260902213008 | 93 | 220 | 0.0 | 4.0 | 0.00 | 0.00 | 0.00 | 55 | 1009.3 |
| 20260902211504 | 95 | 155 | 1.0 | 7.0 | 0.00 | 0.00 | 0.00 | 54 | 1009.4 |
| 20260902210004 | 95 | 211 | 1.0 | 9.0 | 0.00 | 0.00 | 0.00 | 54 | 1009.3 |
| 20260902204506 | 95 | 281 | 1.0 | 7.0 | 0.00 | 0.00 | 0.00 | 54 | 1009.3 |
| 20260902203002 | 95 | 193 | 2.0 | 7.0 | 0.00 | 0.00 | 0.00 | 54 | 1009.4 |
| 20260902201502 | 95 | 209 | 2.0 | 9.0 | 0.00 | 0.00 | 0.00 | 53 | 1009.4 |
| 20260902200058 | 95 | 287 | 1.0 | 4.0 | 0.00 | 0.00 | 0.00 | 55 | 1009.6 |
| 20260902194600 | 94 | 211 | 0.0 | 6.0 | 0.00 | 0.00 | 0.00 | 56 | 1009.8 |
| 20260902193051 | 93 | 196 | 2.0 | 10.0 | 0.00 | 0.00 | 0.00 | 54 | 1009.9 |
| 20260902191548 | 90 | 327 | 3.0 | 10.0 | 0.00 | 0.00 | 0.00 | 61 | 1010.1 |
| 20260902190050 | 78 | 165 | 1.0 | 8.0 | 0.00 | 0.00 | 0.00 | 82 | 1010.1 |
| 20260902184544 | 74 | 228 | 4.0 | 8.0 | 0.00 | 0.00 | 0.00 | 82 | 1010.5 |
| 20260902183043 | 74 | 218 | 7.0 | 12.0 | 0.00 | 0.00 | 0.00 | 85 | 1010.6 |
| 20260902181540 | 76 | 225 | 4.0 | 11.0 | 0.00 | 0.00 | 0.00 | 82 | 1010.8 |
| 20260902180039 | 76 | 229 | 8.0 | 14.0 | 0.00 | 0.00 | 0.00 | 83 | 1010.8 |
| 20260902174537 | 76 | 217 | 6.0 | 10.0 | 0.00 | 0.00 | 0.00 | 81 | 1010.8 |
| 20260902173036 | 77 | 223 | 7.0 | 11.0 | 0.00 | 0.00 | 0.00 | 76 | 1011.0 |
| 20260902171535 | 85 | 209 | 7.0 | 12.0 | 0.00 | 0.00 | 0.00 | 64 | 1010.9 |
| 20260902170034 | 90 | 239 | 1.0 | 7.0 | 0.00 | 0.00 | 0.00 | 62 | 1010.9 |
| 20260902164531 | 89 | 205 | 2.0 | 10.0 | 0.00 | 0.00 | 0.00 | 63 | 1011.1 |
| 20260902163028 | 89 | 233 | 1.0 | 4.0 | 0.00 | 0.00 | 0.00 | 64 | 1011.2 |
| 20260902161535 | 88 | 171 | 1.0 | 3.0 | 0.00 | 0.00 | 0.00 | 65 | 1011.4 |
| 20260902160023 | 86 | 113 | 1.0 | 4.0 | 0.00 | 0.00 | 0.00 | 70 | 1011.4 |
| 20260902154517 | 82 | 91 | 0.0 | 6.0 | 0.00 | 0.01 | 0.00 | 75 | 1011.5 |
| 20260902153014 | 77 | 202 | 2.0 | 4.0 | 0.00 | 0.01 | 0.00 | 78 | 1011.3 |
| 20260902151521 | 78 | 159 | 0.0 | 5.0 | 0.00 | 0.01 | 0.00 | 78 | 1011.5 |
| 20260902150013 | 80 | 188 | 1.0 | 4.0 | 0.00 | 0.01 | 0.00 | 78 | 1011.7 |
| 20260902144512 | 78 | 107 | 0.0 | 3.0 | 0.00 | 0.01 | 0.00 | 79 | 1011.9 |
| 20260902143011 | 82 | 109 | 1.0 | 3.0 | 0.00 | 0.01 | 0.00 | 77 | 1012.0 |
| 20260902141510 | 82 | 5 | 0.0 | 5.0 | 0.00 | 0.01 | 0.00 | 76 | 1011.9 |
| 20260902140014 | 82 | 142 | 0.0 | 6.0 | 0.00 | 0.01 | 0.00 | 76 | 1012.1 |
| 20260902134506 | 80 | 22 | 0.0 | 6.0 | 0.00 | 0.01 | 0.00 | 79 | 1012.0 |
| 20260902133002 | 79 | 65 | 0.0 | 5.0 | 0.00 | 0.01 | 0.00 | 81 | 1012.1 |
| 20260902131606 | 79 | 67 | 1.0 | 6.0 | 0.00 | 0.01 | 0.00 | 82 | 1012.1 |
| 20260902130057 | 78 | 24 | 5.0 | 8.0 | 0.00 | 0.01 | 0.00 | 84 | 1012.6 |
| 20260902124556 | 77 | 209 | 1.0 | 6.0 | 0.00 | 0.01 | 0.00 | 85 | 1011.7 |
| 20260902123055 | 76 | 226 | 0.0 | 4.0 | 0.00 | 0.01 | 0.00 | 87 | 1011.7 |
| 20260902121553 | 76 | 224 | 0.0 | 3.0 | 0.00 | 0.01 | 0.00 | 87 | 1011.6 |
| 20260902120053 | 75 | 212 | 0.0 | 2.0 | 0.00 | 0.01 | 0.00 | 88 | 1011.5 |
| 20260902114552 | 75 | 215 | 0.0 | 2.0 | 0.00 | 0.01 | 0.00 | 88 | 1011.4 |
| 20260902113052 | 76 | 227 | 0.0 | 3.0 | 0.00 | 0.01 | 0.00 | 88 | 1011.3 |
| 20260902111551 | 76 | 227 | 0.0 | 3.0 | 0.00 | 0.01 | 0.00 | 87 | 1011.3 |
| 20260902110051 | 76 | 234 | 0.0 | 0.0 | 0.00 | 0.01 | 0.00 | 88 | 1011.4 |
| 20260902104613 | 76 | 241 | 0.0 | 0.0 | 0.00 | 0.01 | 0.00 | 88 | 1011.4 |
| 20260902103048 | 76 | 238 | 0.0 | 0.0 | 0.00 | 0.01 | 0.00 | 88 | 1011.3 |
| 20260902101548 | 76 | 175 | 0.0 | 3.0 | 0.00 | 0.01 | 0.00 | 89 | 1011.3 |
| 20260902100107 | 76 | 232 | 0.0 | 1.0 | 0.00 | 0.01 | 0.00 | 89 | 1011.3 |
| 20260902094547 | 76 | 242 | 0.0 | 0.0 | 0.00 | 0.01 | 0.00 | 89 | 1011.4 |
| 20260902093048 | 76 | 242 | 0.0 | 0.0 | 0.00 | 0.01 | 0.00 | 90 | 1011.5 |
| 20260902091546 | 75 | 244 | 0.0 | 0.0 | 0.00 | 0.01 | 0.00 | 90 | 1011.5 |
| 20260902090045 | 76 | 244 | 0.0 | 0.0 | 0.00 | 0.01 | 0.00 | 90 | 1011.4 |
| 20260902084542 | 76 | 244 | 0.0 | 0.0 | 0.00 | 0.01 | 0.00 | 90 | 1011.3 |
| 20260902083052 | 76 | 251 | 0.0 | 0.0 | 0.00 | 0.01 | 0.00 | 90 | 1011.2 |
| 20260902081604 | 76 | 251 | 0.0 | 0.0 | 0.00 | 0.01 | 0.00 | 90 | 1011.2 |
| 20260902080053 | 77 | 251 | 0.0 | 0.0 | 0.00 | 0.01 | 0.00 | 89 | 1011.3 |
| 20260902074543 | 77 | 247 | 0.0 | 0.0 | 0.00 | 0.01 | 0.00 | 89 | 1011.2 |
| 20260902073038 | 77 | 247 | 0.0 | 0.0 | 0.00 | 0.01 | 0.00 | 90 | 1011.2 |
| 20260902071540 | 77 | 247 | 0.0 | 0.0 | 0.00 | 0.01 | 0.00 | 90 | 1011.2 |
| 20260902070039 | 77 | 247 | 0.0 | 0.0 | 0.00 | 0.01 | 0.00 | 90 | 1011.1 |
| 20260902064536 | 77 | 247 | 0.0 | 0.0 | 0.00 | 0.01 | 0.00 | 89 | 1011.4 |
| 20260902063040 | 78 | 247 | 0.0 | 0.0 | 0.00 | 0.01 | 0.00 | 89 | 1011.4 |
| 20260902061531 | 78 | 247 | 0.0 | 0.0 | 0.00 | 0.01 | 0.00 | 88 | 1011.3 |